Time,TemperatureF,DewpointF,PressureIn,WindDirection,WindDirectionDegrees,WindSpeedMPH,WindSpeedGustMPH,Humidity,HourlyPrecipIn,Conditions,Clouds,dailyrainin,SoftwareType,DateUTC
2013-09-05 00:01:00,67.9,60.8,30.10,South,174,0.0,0.0,78,0.00,,,0.00,Wunderground v.1.15,2013-09-05 04:01:00,
2013-09-05 00:02:00,67.9,60.8,30.10,South,174,0.0,0.0,78,0.00,,,0.00,Wunderground v.1.15,2013-09-05 04:02:00,
2013-09-05 00:03:00,68.1,61.0,30.10,South,174,0.0,0.0,78,0.00,,,0.00,Wunderground v.1.15,2013-09-05 04:03:00,
2013-09-05 00:07:00,68.1,60.6,30.11,South,174,0.0,2.0,77,0.00,,,0.00,Wunderground v.1.15,2013-09-05 04:07:00,
2013-09-05 00:09:00,68.3,61.2,30.11,South,174,0.0,2.0,78,0.00,,,0.00,Wunderground v.1.15,2013-09-05 04:09:00,
2013-09-05 00:14:00,68.1,61.0,30.11,South,174,0.0,0.0,78,0.00,,,0.00,Wunderground v.1.15,2013-09-05 04:14:00,
2013-09-05 00:20:00,68.1,61.0,30.11,South,174,0.0,0.0,78,0.00,,,0.00,Wunderground v.1.15,2013-09-05 04:20:00,
2013-09-05 00:25:00,67.9,60.8,30.11,South,174,0.0,0.0,78,0.00,,,0.00,Wunderground v.1.15,2013-09-05 04:25:00,
2013-09-05 00:31:00,67.9,60.8,30.11,South,174,0.0,0.0,78,0.00,,,0.00,Wunderground v.1.15,2013-09-05 04:31:00,
2013-09-05 00:36:00,67.8,60.7,30.11,South,174,0.0,0.0,78,0.00,,,0.00,Wunderground v.1.15,2013-09-05 04:36:00,
2013-09-05 00:42:00,67.8,60.7,30.11,South,174,0.0,0.0,78,0.00,,,0.00,Wunderground v.1.15,2013-09-05 04:42:00,
2013-09-05 00:47:00,67.8,61.0,30.11,South,174,0.0,1.0,79,0.00,,,0.00,Wunderground v.1.15,2013-09-05 04:47:00,
2013-09-05 00:53:00,67.8,60.3,30.11,South,174,0.0,0.0,77,0.00,,,0.00,Wunderground v.1.15,2013-09-05 04:53:00,
2013-09-05 00:58:00,67.8,60.7,30.11,South,174,0.0,0.0,78,0.00,,,0.00,Wunderground v.1.15,2013-09-05 04:58:00,
2013-09-05 01:04:00,67.8,60.7,30.11,South,174,0.0,0.0,78,0.00,,,0.00,Wunderground v.1.15,2013-09-05 05:04:00,
2013-09-05 01:09:00,67.8,60.3,30.10,South,174,0.0,0.0,77,0.00,,,0.00,Wunderground v.1.15,2013-09-05 05:09:00,
2013-09-05 01:14:00,67.8,60.3,30.10,South,174,0.0,0.0,77,0.00,,,0.00,Wunderground v.1.15,2013-09-05 05:14:00,
2013-09-05 01:20:00,67.6,60.5,30.10,South,174,0.0,0.0,78,0.00,,,0.00,Wunderground v.1.15,2013-09-05 05:20:00,
2013-09-05 01:25:00,67.1,60.0,30.10,South,174,0.0,0.0,78,0.00,,,0.00,Wunderground v.1.15,2013-09-05 05:25:00,
2013-09-05 01:31:00,66.8,60.1,30.10,South,174,0.0,0.0,79,0.00,,,0.00,Wunderground v.1.15,2013-09-05 05:31:00,
2013-09-05 01:36:00,66.6,60.2,30.10,South,174,0.0,0.0,80,0.00,,,0.00,Wunderground v.1.15,2013-09-05 05:36:00,
2013-09-05 01:42:00,66.4,60.0,30.10,South,174,0.0,0.0,80,0.00,,,0.00,Wunderground v.1.15,2013-09-05 05:42:00,
2013-09-05 01:47:00,66.4,60.4,30.10,South,174,0.0,0.0,81,0.00,,,0.00,Wunderground v.1.15,2013-09-05 05:47:00,
2013-09-05 01:53:00,66.4,60.4,30.09,South,174,0.0,0.0,81,0.00,,,0.00,Wunderground v.1.15,2013-09-05 05:53:00,
2013-09-05 01:58:00,66.4,60.0,30.09,South,174,0.0,0.0,80,0.00,,,0.00,Wunderground v.1.15,2013-09-05 05:58:00,
2013-09-05 02:04:00,66.4,59.3,30.09,South,174,0.0,0.0,78,0.00,,,0.00,Wunderground v.1.15,2013-09-05 06:04:00,
2013-09-05 02:09:00,66.8,60.1,30.09,South,174,0.0,0.0,79,0.00,,,0.00,Wunderground v.1.15,2013-09-05 06:09:00,
2013-09-05 02:15:00,66.8,59.7,30.09,South,174,0.0,0.0,78,0.00,,,0.00,Wunderground v.1.15,2013-09-05 06:15:00,
2013-09-05 02:20:00,66.8,60.1,30.08,South,174,0.0,0.0,79,0.00,,,0.00,Wunderground v.1.15,2013-09-05 06:20:00,
2013-09-05 02:25:00,66.6,59.9,30.08,South,174,0.0,0.0,79,0.00,,,0.00,Wunderground v.1.15,2013-09-05 06:25:00,
2013-09-05 02:31:00,66.6,59.5,30.08,South,174,0.0,0.0,78,0.00,,,0.00,Wunderground v.1.15,2013-09-05 06:31:00,
2013-09-05 02:36:00,66.6,59.5,30.08,South,174,0.0,0.0,78,0.00,,,0.00,Wunderground v.1.15,2013-09-05 06:36:00,
2013-09-05 02:42:00,66.4,59.3,30.08,South,174,0.0,0.0,78,0.00,,,0.00,Wunderground v.1.15,2013-09-05 06:42:00,
2013-09-05 02:47:00,66.4,59.3,30.08,South,174,0.0,0.0,78,0.00,,,0.00,Wunderground v.1.15,2013-09-05 06:47:00,
2013-09-05 02:53:00,66.4,59.3,30.08,South,174,0.0,0.0,78,0.00,,,0.00,Wunderground v.1.15,2013-09-05 06:53:00,
2013-09-05 02:58:00,66.4,59.0,30.08,South,174,0.0,0.0,77,0.00,,,0.00,Wunderground v.1.15,2013-09-05 06:58:00,
2013-09-05 03:04:00,66.4,59.0,30.08,South,174,0.0,0.0,77,0.00,,,0.00,Wunderground v.1.15,2013-09-05 07:04:00,
2013-09-05 03:10:00,66.4,59.0,30.08,South,174,0.0,0.0,77,0.00,,,0.00,Wunderground v.1.15,2013-09-05 07:10:00,
2013-09-05 03:15:00,66.4,59.0,30.08,South,174,0.0,0.0,77,0.00,,,0.00,Wunderground v.1.15,2013-09-05 07:15:00,
2013-09-05 03:20:00,66.3,58.9,30.08,South,174,0.0,0.0,77,0.00,,,0.00,Wunderground v.1.15,2013-09-05 07:20:00,
2013-09-05 03:26:00,66.3,59.2,30.08,South,174,0.0,0.0,78,0.00,,,0.00,Wunderground v.1.15,2013-09-05 07:26:00,
2013-09-05 03:31:00,66.1,59.4,30.08,South,174,0.0,0.0,79,0.00,,,0.00,Wunderground v.1.15,2013-09-05 07:31:00,
2013-09-05 03:37:00,66.0,59.7,30.08,South,174,0.0,0.0,80,0.00,,,0.00,Wunderground v.1.15,2013-09-05 07:37:00,
2013-09-05 03:42:00,66.0,59.3,30.08,South,174,0.0,0.0,79,0.00,,,0.00,Wunderground v.1.15,2013-09-05 07:42:00,
2013-09-05 03:48:00,66.0,59.7,30.08,South,174,0.0,0.0,80,0.00,,,0.00,Wunderground v.1.15,2013-09-05 07:48:00,
2013-09-05 03:53:00,66.0,59.3,30.08,South,174,0.0,0.0,79,0.00,,,0.00,Wunderground v.1.15,2013-09-05 07:53:00,
2013-09-05 03:59:00,66.1,59.7,30.08,South,174,0.0,0.0,80,0.00,,,0.00,Wunderground v.1.15,2013-09-05 07:59:00,
2013-09-05 04:04:00,66.1,59.7,30.08,South,174,0.0,0.0,80,0.00,,,0.00,Wunderground v.1.15,2013-09-05 08:04:00,
2013-09-05 04:10:00,66.1,60.1,30.08,South,174,0.0,0.0,81,0.00,,,0.00,Wunderground v.1.15,2013-09-05 08:10:00,
2013-09-05 04:15:00,66.0,60.0,30.08,South,174,0.0,0.0,81,0.00,,,0.00,Wunderground v.1.15,2013-09-05 08:15:00,
2013-09-05 04:21:00,66.0,60.0,30.08,South,174,0.0,0.0,81,0.00,,,0.00,Wunderground v.1.15,2013-09-05 08:21:00,
2013-09-05 04:26:00,65.8,59.5,30.08,South,174,0.0,0.0,80,0.00,,,0.00,Wunderground v.1.15,2013-09-05 08:26:00,
2013-09-05 04:31:00,65.8,60.2,30.08,South,174,0.0,0.0,82,0.00,,,0.00,Wunderground v.1.15,2013-09-05 08:31:00,
2013-09-05 04:37:00,65.6,60.0,30.08,South,174,0.0,0.0,82,0.00,,,0.00,Wunderground v.1.15,2013-09-05 08:37:00,
2013-09-05 04:42:00,65.6,59.6,30.08,South,174,0.0,0.0,81,0.00,,,0.00,Wunderground v.1.15,2013-09-05 08:42:00,
2013-09-05 04:48:00,65.6,59.6,30.08,South,174,0.0,0.0,81,0.00,,,0.00,Wunderground v.1.15,2013-09-05 08:48:00,
2013-09-05 04:53:00,65.5,59.5,30.08,South,174,0.0,0.0,81,0.00,,,0.00,Wunderground v.1.15,2013-09-05 08:53:00,
2013-09-05 04:58:00,65.5,59.5,30.08,South,174,0.0,0.0,81,0.00,,,0.00,Wunderground v.1.15,2013-09-05 08:58:00,
2013-09-05 05:04:00,65.5,59.9,30.08,South,174,0.0,0.0,82,0.00,,,0.00,Wunderground v.1.15,2013-09-05 09:04:00,
2013-09-05 05:09:00,65.3,59.7,30.08,South,174,0.0,0.0,82,0.00,,,0.00,Wunderground v.1.15,2013-09-05 09:09:00,
2013-09-05 05:15:00,65.3,59.3,30.08,South,174,0.0,0.0,81,0.00,,,0.00,Wunderground v.1.15,2013-09-05 09:15:00,
2013-09-05 05:20:00,65.2,59.2,30.09,South,174,0.0,0.0,81,0.00,,,0.00,Wunderground v.1.15,2013-09-05 09:20:00,
2013-09-05 05:26:00,65.2,59.2,30.09,South,174,0.0,0.0,81,0.00,,,0.00,Wunderground v.1.15,2013-09-05 09:26:00,
2013-09-05 05:31:00,65.2,58.9,30.09,South,174,0.0,0.0,80,0.00,,,0.00,Wunderground v.1.15,2013-09-05 09:31:00,
2013-09-05 05:37:00,65.2,59.2,30.09,South,174,0.0,0.0,81,0.00,,,0.00,Wunderground v.1.15,2013-09-05 09:37:00,
2013-09-05 05:42:00,65.0,59.0,30.09,South,174,0.0,0.0,81,0.00,,,0.00,Wunderground v.1.15,2013-09-05 09:42:00,
2013-09-05 05:48:00,65.0,59.0,30.09,South,174,0.0,0.0,81,0.00,,,0.00,Wunderground v.1.15,2013-09-05 09:48:00,
2013-09-05 05:53:00,65.0,59.0,30.09,South,174,0.0,0.0,81,0.00,,,0.00,Wunderground v.1.15,2013-09-05 09:53:00,
2013-09-05 05:59:00,65.0,59.0,30.09,South,174,0.0,0.0,81,0.00,,,0.00,Wunderground v.1.15,2013-09-05 09:59:00,
2013-09-05 06:04:00,65.0,59.4,30.09,South,174,0.0,0.0,82,0.00,,,0.00,Wunderground v.1.15,2013-09-05 10:04:00,
2013-09-05 06:10:00,64.8,59.2,30.09,South,174,0.0,0.0,82,0.00,,,0.00,Wunderground v.1.15,2013-09-05 10:10:00,
2013-09-05 06:15:00,64.8,58.8,30.09,South,174,0.0,0.0,81,0.00,,,0.00,Wunderground v.1.15,2013-09-05 10:15:00,
2013-09-05 06:21:00,64.7,58.7,30.10,South,174,0.0,0.0,81,0.00,,,0.00,Wunderground v.1.15,2013-09-05 10:21:00,
2013-09-05 06:26:00,64.7,58.7,30.10,South,174,0.0,0.0,81,0.00,,,0.00,Wunderground v.1.15,2013-09-05 10:26:00,
2013-09-05 06:32:00,64.8,58.5,30.10,South,174,0.0,1.0,80,0.00,,,0.00,Wunderground v.1.15,2013-09-05 10:32:00,
2013-09-05 06:37:00,65.0,58.7,30.10,South,174,0.0,1.0,80,0.00,,,0.00,Wunderground v.1.15,2013-09-05 10:37:00,
2013-09-05 06:43:00,65.0,58.3,30.10,South,174,0.0,0.0,79,0.00,,,0.00,Wunderground v.1.15,2013-09-05 10:43:00,
2013-09-05 06:48:00,65.0,58.3,30.10,South,174,0.0,0.0,79,0.00,,,0.00,Wunderground v.1.15,2013-09-05 10:48:00,
2013-09-05 06:54:00,65.0,58.3,30.12,South,174,0.0,0.0,79,0.00,,,0.00,Wunderground v.1.15,2013-09-05 10:54:00,
2013-09-05 06:59:00,65.0,58.3,30.12,West,279,0.0,0.0,79,0.00,,,0.00,Wunderground v.1.15,2013-09-05 10:59:00,
2013-09-05 07:05:00,65.0,58.7,30.12,West,279,0.0,0.0,80,0.00,,,0.00,Wunderground v.1.15,2013-09-05 11:05:00,
2013-09-05 07:10:00,65.0,59.0,30.12,West,279,0.0,0.0,81,0.00,,,0.00,Wunderground v.1.15,2013-09-05 11:10:00,
2013-09-05 07:16:00,64.8,58.8,30.12,West,279,0.0,0.0,81,0.00,,,0.00,Wunderground v.1.15,2013-09-05 11:16:00,
2013-09-05 07:21:00,64.7,59.1,30.12,West,279,0.0,0.0,82,0.00,,,0.00,Wunderground v.1.15,2013-09-05 11:21:00,
2013-09-05 07:27:00,64.5,58.9,30.12,West,279,0.0,0.0,82,0.00,,,0.00,Wunderground v.1.15,2013-09-05 11:27:00,
2013-09-05 07:32:00,64.5,58.9,30.12,West,279,0.0,0.0,82,0.00,,,0.00,Wunderground v.1.15,2013-09-05 11:32:00,
2013-09-05 07:38:00,64.5,59.2,30.13,West,279,0.0,0.0,83,0.00,,,0.00,Wunderground v.1.15,2013-09-05 11:38:00,
2013-09-05 07:44:00,64.5,58.9,30.13,West,279,0.0,0.0,82,0.00,,,0.00,Wunderground v.1.15,2013-09-05 11:44:00,
2013-09-05 07:49:00,64.7,59.1,30.13,West,279,0.0,0.0,82,0.00,,,0.00,Wunderground v.1.15,2013-09-05 11:49:00,
2013-09-05 07:55:00,64.8,59.2,30.14,West,279,0.0,0.0,82,0.00,,,0.00,Wunderground v.1.15,2013-09-05 11:55:00,
2013-09-05 08:00:00,65.0,59.7,30.14,West,279,0.0,0.0,83,0.00,,,0.00,Wunderground v.1.15,2013-09-05 12:00:00,
2013-09-05 08:06:00,65.3,60.0,30.14,West,279,0.0,0.0,83,0.00,,,0.00,Wunderground v.1.15,2013-09-05 12:06:00,
2013-09-05 08:11:00,65.5,59.9,30.14,West,279,0.0,0.0,82,0.00,,,0.00,Wunderground v.1.15,2013-09-05 12:11:00,
2013-09-05 08:17:00,65.8,60.5,30.14,West,279,0.0,0.0,83,0.00,,,0.00,Wunderground v.1.15,2013-09-05 12:17:00,
2013-09-05 08:22:00,65.8,59.8,30.14,West,279,0.0,0.0,81,0.00,,,0.00,Wunderground v.1.15,2013-09-05 12:22:00,
2013-09-05 08:27:00,66.0,60.3,30.14,West,279,0.0,0.0,82,0.00,,,0.00,Wunderground v.1.15,2013-09-05 12:27:00,
2013-09-05 08:33:00,66.1,60.1,30.14,West,279,0.0,0.0,81,0.00,,,0.00,Wunderground v.1.15,2013-09-05 12:33:00,
2013-09-05 08:38:00,66.4,59.3,30.14,West,279,0.0,0.0,78,0.00,,,0.00,Wunderground v.1.15,2013-09-05 12:38:00,
2013-09-05 08:44:00,66.9,59.8,30.14,West,279,0.0,0.0,78,0.00,,,0.00,Wunderground v.1.15,2013-09-05 12:44:00,
2013-09-05 08:49:00,67.3,60.2,30.15,West,279,0.0,0.0,78,0.00,,,0.00,Wunderground v.1.15,2013-09-05 12:49:00,
2013-09-05 08:55:00,67.4,59.9,30.15,West,279,0.0,0.0,77,0.00,,,0.00,Wunderground v.1.15,2013-09-05 12:55:00,
2013-09-05 09:00:00,67.6,60.5,30.15,West,279,0.0,0.0,78,0.00,,,0.00,Wunderground v.1.15,2013-09-05 13:00:00,
2013-09-05 09:06:00,68.1,60.6,30.14,West,279,0.0,1.0,77,0.00,,,0.00,Wunderground v.1.15,2013-09-05 13:06:00,
2013-09-05 09:12:00,68.4,60.2,30.14,West,279,0.0,0.0,75,0.00,,,0.00,Wunderground v.1.15,2013-09-05 13:12:00,
2013-09-05 09:18:00,68.8,60.9,30.14,West,279,0.0,0.0,76,0.00,,,0.00,Wunderground v.1.15,2013-09-05 13:18:00,
2013-09-05 09:24:00,68.9,60.6,30.14,West,279,0.0,0.0,75,0.00,,,0.00,Wunderground v.1.15,2013-09-05 13:24:00,
2013-09-05 09:29:00,69.4,61.1,30.14,West,279,0.0,0.0,75,0.00,,,0.00,Wunderground v.1.15,2013-09-05 13:29:00,
2013-09-05 09:34:00,69.8,60.8,30.14,West,279,0.0,0.0,73,0.00,,,0.00,Wunderground v.1.15,2013-09-05 13:34:00,
2013-09-05 09:40:00,70.1,61.4,30.14,West,279,0.0,0.0,74,0.00,,,0.00,Wunderground v.1.15,2013-09-05 13:40:00,
2013-09-05 09:45:00,70.8,61.7,30.14,West,279,0.0,0.0,73,0.00,,,0.00,Wunderground v.1.15,2013-09-05 13:45:00,
2013-09-05 09:51:00,71.1,61.2,30.14,WNW,285,0.0,0.0,71,0.00,,,0.00,Wunderground v.1.15,2013-09-05 13:51:00,
2013-09-05 09:57:00,71.6,61.7,30.14,WNW,292,0.0,0.0,71,0.00,,,0.00,Wunderground v.1.15,2013-09-05 13:57:00,
2013-09-05 10:03:00,72.0,62.1,30.14,WNW,298,0.0,0.0,71,0.00,,,0.00,Wunderground v.1.15,2013-09-05 14:03:00,
2013-09-05 10:08:00,72.1,61.8,30.14,NW,304,0.0,1.0,70,0.00,,,0.00,Wunderground v.1.15,2013-09-05 14:08:00,
2013-09-05 10:13:00,72.5,63.0,30.14,NW,321,0.0,0.0,72,0.00,,,0.00,Wunderground v.1.15,2013-09-05 14:13:00,
2013-09-05 10:19:00,73.0,62.6,30.14,North,353,1.0,1.0,70,0.00,,,0.00,Wunderground v.1.15,2013-09-05 14:19:00,
2013-09-05 10:24:00,73.2,62.0,30.14,NNE,18,1.0,5.0,68,0.00,,,0.00,Wunderground v.1.15,2013-09-05 14:24:00,
2013-09-05 10:30:00,72.8,62.4,30.14,NE,52,2.0,2.0,70,0.00,,,0.00,Wunderground v.1.15,2013-09-05 14:30:00,
2013-09-05 10:35:00,72.7,62.3,30.15,NE,56,2.0,4.0,70,0.00,,,0.00,Wunderground v.1.15,2013-09-05 14:35:00,
2013-09-05 10:41:00,72.8,62.4,30.15,ENE,58,1.0,1.0,70,0.00,,,0.00,Wunderground v.1.15,2013-09-05 14:41:00,
2013-09-05 10:46:00,72.5,61.7,30.15,ENE,63,1.0,3.0,69,0.00,,,0.00,Wunderground v.1.15,2013-09-05 14:46:00,
2013-09-05 10:52:00,73.0,63.4,30.15,ENE,63,1.0,2.0,72,0.00,,,0.00,Wunderground v.1.15,2013-09-05 14:52:00,
2013-09-05 10:57:00,73.0,62.2,30.15,NE,52,2.0,6.0,69,0.00,,,0.00,Wunderground v.1.15,2013-09-05 14:57:00,
2013-09-05 11:03:00,73.5,62.3,30.15,NE,53,1.0,1.0,68,0.00,,,0.00,Wunderground v.1.15,2013-09-05 15:03:00,
2013-09-05 11:08:00,74.0,63.2,30.15,NE,55,1.0,4.0,69,0.00,,,0.00,Wunderground v.1.15,2013-09-05 15:08:00,
2013-09-05 11:14:00,73.3,62.5,30.15,ENE,58,2.0,5.0,69,0.00,,,0.00,Wunderground v.1.15,2013-09-05 15:14:00,
2013-09-05 11:19:00,73.2,62.8,30.15,ENE,74,2.0,5.0,70,0.00,,,0.00,Wunderground v.1.15,2013-09-05 15:19:00,
2013-09-05 11:25:00,74.0,63.2,30.15,ENE,59,2.0,3.0,69,0.00,,,0.00,Wunderground v.1.15,2013-09-05 15:25:00,
2013-09-05 11:30:00,74.6,62.5,30.15,ENE,60,1.0,4.0,66,0.00,,,0.00,Wunderground v.1.15,2013-09-05 15:30:00,
2013-09-05 11:36:00,75.3,64.0,30.15,NE,49,1.0,6.0,68,0.00,,,0.00,Wunderground v.1.15,2013-09-05 15:36:00,
2013-09-05 11:41:00,75.6,63.0,30.15,NE,49,1.0,1.0,65,0.00,,,0.00,Wunderground v.1.15,2013-09-05 15:41:00,
2013-09-05 11:47:00,75.8,63.2,30.15,NE,49,0.0,1.0,65,0.00,,,0.00,Wunderground v.1.15,2013-09-05 15:47:00,
2013-09-05 11:52:00,76.0,62.0,30.14,NE,49,1.0,5.0,62,0.00,,,0.00,Wunderground v.1.15,2013-09-05 15:52:00,
2013-09-05 11:57:00,75.6,63.9,30.14,NE,49,2.0,5.0,67,0.00,,,0.00,Wunderground v.1.15,2013-09-05 15:57:00,
2013-09-05 12:03:00,76.3,62.8,30.14,NE,49,1.0,5.0,63,0.00,,,0.00,Wunderground v.1.15,2013-09-05 16:03:00,
2013-09-05 12:08:00,76.3,63.7,30.14,NE,49,1.0,5.0,65,0.00,,,0.00,Wunderground v.1.15,2013-09-05 16:08:00,
2013-09-05 12:14:00,76.5,63.0,30.14,NE,49,0.0,3.0,63,0.00,,,0.00,Wunderground v.1.15,2013-09-05 16:14:00,
2013-09-05 12:19:00,76.7,63.6,30.14,NE,49,1.0,3.0,64,0.00,,,0.00,Wunderground v.1.15,2013-09-05 16:19:00,
2013-09-05 12:25:00,77.2,63.6,30.14,NE,49,1.0,2.0,63,0.00,,,0.00,Wunderground v.1.15,2013-09-05 16:25:00,
2013-09-05 12:30:00,76.8,62.3,30.14,NE,49,1.0,1.0,61,0.00,,,0.00,Wunderground v.1.15,2013-09-05 16:30:00,
2013-09-05 12:36:00,76.1,63.5,30.14,NE,49,1.0,4.0,65,0.00,,,0.00,Wunderground v.1.15,2013-09-05 16:36:00,
2013-09-05 12:41:00,76.3,62.8,30.14,NE,49,0.0,0.0,63,0.00,,,0.00,Wunderground v.1.15,2013-09-05 16:41:00,
2013-09-05 12:46:00,76.7,61.8,30.14,NE,49,0.0,0.0,60,0.00,,,0.00,Wunderground v.1.15,2013-09-05 16:46:00,
2013-09-05 12:52:00,76.7,63.2,30.13,NE,49,0.0,0.0,63,0.00,,,0.00,Wunderground v.1.15,2013-09-05 16:52:00,
2013-09-05 12:57:00,77.2,63.2,30.13,NE,49,0.0,4.0,62,0.00,,,0.00,Wunderground v.1.15,2013-09-05 16:57:00,
2013-09-05 13:03:00,77.0,63.4,30.13,NE,49,1.0,1.0,63,0.00,,,0.00,Wunderground v.1.15,2013-09-05 17:03:00,
2013-09-05 13:08:00,77.2,63.2,30.13,NE,49,1.0,1.0,62,0.00,,,0.00,Wunderground v.1.15,2013-09-05 17:08:00,
2013-09-05 13:14:00,77.7,63.2,30.13,NE,49,0.0,3.0,61,0.00,,,0.00,Wunderground v.1.15,2013-09-05 17:14:00,
2013-09-05 13:19:00,77.7,62.7,30.13,NE,45,1.0,7.0,60,0.00,,,0.00,Wunderground v.1.15,2013-09-05 17:19:00,
2013-09-05 13:24:00,77.0,63.4,30.13,NE,45,2.0,3.0,63,0.00,,,0.00,Wunderground v.1.15,2013-09-05 17:24:00,
2013-09-05 13:30:00,77.7,62.2,30.13,NE,51,2.0,2.0,59,0.00,,,0.00,Wunderground v.1.15,2013-09-05 17:30:00,
2013-09-05 13:35:00,77.6,63.5,30.13,ENE,60,2.0,5.0,62,0.00,,,0.00,Wunderground v.1.15,2013-09-05 17:35:00,
2013-09-05 13:41:00,77.9,63.8,30.13,ENE,60,1.0,1.0,62,0.00,,,0.00,Wunderground v.1.15,2013-09-05 17:41:00,
2013-09-05 13:46:00,77.6,62.1,30.13,ENE,60,0.0,1.0,59,0.00,,,0.00,Wunderground v.1.15,2013-09-05 17:46:00,
2013-09-05 13:52:00,77.6,61.7,30.13,ENE,62,1.0,6.0,58,0.00,,,0.00,Wunderground v.1.15,2013-09-05 17:52:00,
2013-09-05 13:57:00,78.1,62.1,30.13,ENE,62,1.0,6.0,58,0.00,,,0.00,Wunderground v.1.15,2013-09-05 17:57:00,
2013-09-05 14:03:00,78.5,62.5,30.13,ENE,62,0.0,6.0,58,0.00,,,0.00,Wunderground v.1.15,2013-09-05 18:03:00,
2013-09-05 14:08:00,77.9,62.4,30.13,ENE,60,2.0,6.0,59,0.00,,,0.00,Wunderground v.1.15,2013-09-05 18:08:00,
2013-09-05 14:14:00,77.9,62.9,30.13,ENE,75,3.0,3.0,60,0.00,,,0.00,Wunderground v.1.15,2013-09-05 18:14:00,
2013-09-05 14:20:00,77.4,62.9,30.13,NE,51,2.0,2.0,61,0.00,,,0.00,Wunderground v.1.15,2013-09-05 18:20:00,
2013-09-05 14:26:00,77.7,63.2,30.13,NE,52,1.0,2.0,61,0.00,,,0.00,Wunderground v.1.15,2013-09-05 18:26:00,
2013-09-05 14:31:00,77.6,63.1,30.13,NE,52,0.0,0.0,61,0.00,,,0.00,Wunderground v.1.15,2013-09-05 18:31:00,
2013-09-05 14:37:00,77.9,64.3,30.13,NE,52,1.0,5.0,63,0.00,,,0.00,Wunderground v.1.15,2013-09-05 18:37:00,
2013-09-05 14:42:00,78.3,63.7,30.13,NE,52,2.0,5.0,61,0.00,,,0.00,Wunderground v.1.15,2013-09-05 18:42:00,
2013-09-05 14:48:00,78.8,65.1,30.13,NE,54,2.0,5.0,63,0.00,,,0.00,Wunderground v.1.15,2013-09-05 18:48:00,
2013-09-05 14:53:00,78.8,65.1,30.12,NE,54,1.0,2.0,63,0.00,,,0.00,Wunderground v.1.15,2013-09-05 18:53:00,
2013-09-05 14:59:00,78.5,63.5,30.12,NE,46,1.0,3.0,60,0.00,,,0.00,Wunderground v.1.15,2013-09-05 18:59:00,
2013-09-05 15:04:00,78.1,64.5,30.12,NE,46,1.0,4.0,63,0.00,,,0.00,Wunderground v.1.15,2013-09-05 19:04:00,
2013-09-05 15:10:00,78.5,63.9,30.11,NE,46,0.0,0.0,61,0.00,,,0.00,Wunderground v.1.15,2013-09-05 19:10:00,
2013-09-05 15:15:00,79.2,64.1,30.11,NE,46,0.0,0.0,60,0.00,,,0.00,Wunderground v.1.15,2013-09-05 19:15:00,
2013-09-05 15:21:00,79.8,64.7,30.11,NE,46,0.0,0.0,60,0.00,,,0.00,Wunderground v.1.15,2013-09-05 19:21:00,
2013-09-05 15:26:00,79.6,64.5,30.11,NE,46,0.0,0.0,60,0.00,,,0.00,Wunderground v.1.15,2013-09-05 19:26:00,
2013-09-05 15:31:00,79.0,63.4,30.11,NE,46,0.0,0.0,59,0.00,,,0.00,Wunderground v.1.15,2013-09-05 19:31:00,
2013-09-05 15:37:00,78.3,63.3,30.11,NE,46,0.0,4.0,60,0.00,,,0.00,Wunderground v.1.15,2013-09-05 19:37:00,
2013-09-05 15:42:00,77.7,64.1,30.11,NE,46,1.0,3.0,63,0.00,,,0.00,Wunderground v.1.15,2013-09-05 19:42:00,
2013-09-05 15:48:00,77.7,65.0,30.11,NE,46,1.0,3.0,65,0.00,,,0.00,Wunderground v.1.15,2013-09-05 19:48:00,
2013-09-05 15:53:00,77.6,64.5,30.10,NE,46,1.0,1.0,64,0.00,,,0.00,Wunderground v.1.15,2013-09-05 19:53:00,
2013-09-05 15:59:00,77.7,64.1,30.10,NE,46,0.0,3.0,63,0.00,,,0.00,Wunderground v.1.15,2013-09-05 19:59:00,
2013-09-05 16:04:00,78.1,64.9,30.10,NE,46,0.0,0.0,64,0.00,,,0.00,Wunderground v.1.15,2013-09-05 20:04:00,
2013-09-05 16:10:00,78.5,63.5,30.10,NE,51,1.0,1.0,60,0.00,,,0.00,Wunderground v.1.15,2013-09-05 20:10:00,
2013-09-05 16:15:00,78.3,64.2,30.10,NE,51,1.0,2.0,62,0.00,,,0.00,Wunderground v.1.15,2013-09-05 20:15:00,
2013-09-05 16:21:00,77.9,65.2,30.10,NE,49,1.0,4.0,65,0.00,,,0.00,Wunderground v.1.15,2013-09-05 20:21:00,
2013-09-05 16:26:00,77.9,65.2,30.10,NE,48,1.0,4.0,65,0.00,,,0.00,Wunderground v.1.15,2013-09-05 20:26:00,
2013-09-05 16:32:00,78.1,65.8,30.10,NE,48,1.0,5.0,66,0.00,,,0.00,Wunderground v.1.15,2013-09-05 20:32:00,
2013-09-05 16:38:00,77.9,65.6,30.10,NE,48,2.0,5.0,66,0.00,,,0.00,Wunderground v.1.15,2013-09-05 20:38:00,
2013-09-05 16:44:00,77.4,64.3,30.10,ENE,60,2.0,3.0,64,0.00,,,0.00,Wunderground v.1.15,2013-09-05 20:44:00,
2013-09-05 16:49:00,77.6,64.9,30.10,ENE,59,2.0,4.0,65,0.00,,,0.00,Wunderground v.1.15,2013-09-05 20:49:00,
2013-09-05 16:55:00,77.4,63.4,30.10,NE,46,3.0,4.0,62,0.00,,,0.00,Wunderground v.1.15,2013-09-05 20:55:00,
2013-09-05 17:00:00,77.2,64.1,30.10,NE,45,2.0,2.0,64,0.00,,,0.00,Wunderground v.1.15,2013-09-05 21:00:00,
2013-09-05 17:06:00,77.0,63.9,30.10,NE,46,1.0,6.0,64,0.00,,,0.00,Wunderground v.1.15,2013-09-05 21:06:00,
2013-09-05 17:11:00,77.0,64.3,30.10,NE,44,2.0,4.0,65,0.00,,,0.00,Wunderground v.1.15,2013-09-05 21:11:00,
2013-09-05 17:17:00,77.0,63.4,30.10,NE,45,2.0,4.0,63,0.00,,,0.00,Wunderground v.1.15,2013-09-05 21:17:00,
2013-09-05 17:22:00,77.0,63.0,30.10,NE,45,2.0,3.0,62,0.00,,,0.00,Wunderground v.1.15,2013-09-05 21:22:00,
2013-09-05 17:28:00,77.0,63.0,30.10,NE,45,1.0,3.0,62,0.00,,,0.00,Wunderground v.1.15,2013-09-05 21:28:00,
2013-09-05 17:33:00,77.0,63.9,30.10,NE,45,0.0,1.0,64,0.00,,,0.00,Wunderground v.1.15,2013-09-05 21:33:00,
2013-09-05 17:39:00,77.0,64.3,30.10,NE,45,0.0,1.0,65,0.00,,,0.00,Wunderground v.1.15,2013-09-05 21:39:00,
2013-09-05 17:44:00,76.8,62.8,30.10,NE,45,0.0,0.0,62,0.00,,,0.00,Wunderground v.1.15,2013-09-05 21:44:00,
2013-09-05 17:50:00,76.8,63.7,30.10,NE,45,0.0,0.0,64,0.00,,,0.00,Wunderground v.1.15,2013-09-05 21:50:00,
2013-09-05 17:55:00,77.0,64.3,30.10,NE,45,0.0,0.0,65,0.00,,,0.00,Wunderground v.1.15,2013-09-05 21:55:00,
2013-09-05 18:01:00,76.8,63.2,30.10,NE,45,0.0,0.0,63,0.00,,,0.00,Wunderground v.1.15,2013-09-05 22:01:00,
2013-09-05 18:06:00,76.8,63.2,30.10,NE,45,0.0,1.0,63,0.00,,,0.00,Wunderground v.1.15,2013-09-05 22:06:00,
2013-09-05 18:11:00,76.7,62.7,30.10,NE,45,0.0,0.0,62,0.00,,,0.00,Wunderground v.1.15,2013-09-05 22:11:00,
2013-09-05 18:17:00,76.7,62.7,30.10,NE,45,0.0,0.0,62,0.00,,,0.00,Wunderground v.1.15,2013-09-05 22:17:00,
2013-09-05 18:22:00,76.5,62.5,30.10,NE,45,0.0,1.0,62,0.00,,,0.00,Wunderground v.1.15,2013-09-05 22:22:00,
2013-09-05 18:28:00,76.3,63.2,30.10,NE,45,0.0,1.0,64,0.00,,,0.00,Wunderground v.1.15,2013-09-05 22:28:00,
2013-09-05 18:34:00,76.1,63.0,30.10,NE,45,0.0,0.0,64,0.00,,,0.00,Wunderground v.1.15,2013-09-05 22:34:00,
2013-09-05 18:40:00,76.0,63.4,30.10,NE,45,0.0,0.0,65,0.00,,,0.00,Wunderground v.1.15,2013-09-05 22:40:00,
2013-09-05 18:45:00,75.8,62.3,30.10,NE,45,0.0,0.0,63,0.00,,,0.00,Wunderground v.1.15,2013-09-05 22:45:00,
2013-09-05 18:51:00,75.8,62.8,30.10,NE,45,0.0,0.0,64,0.00,,,0.00,Wunderground v.1.15,2013-09-05 22:51:00,
2013-09-05 18:56:00,75.6,63.0,30.10,NE,45,0.0,0.0,65,0.00,,,0.00,Wunderground v.1.15,2013-09-05 22:56:00,
2013-09-05 19:02:00,75.4,63.2,30.10,NE,45,0.0,0.0,66,0.00,,,0.00,Wunderground v.1.15,2013-09-05 23:02:00,
2013-09-05 19:07:00,75.1,63.0,30.10,NE,45,0.0,0.0,66,0.00,,,0.00,Wunderground v.1.15,2013-09-05 23:07:00,
2013-09-05 19:12:00,74.7,63.0,30.10,NE,45,0.0,0.0,67,0.00,,,0.00,Wunderground v.1.15,2013-09-05 23:12:00,
2013-09-05 19:18:00,74.6,62.5,30.10,NE,45,0.0,0.0,66,0.00,,,0.00,Wunderground v.1.15,2013-09-05 23:18:00,
2013-09-05 19:23:00,74.4,64.0,30.10,NE,45,0.0,0.0,70,0.00,,,0.00,Wunderground v.1.15,2013-09-05 23:23:00,
2013-09-05 19:29:00,73.9,63.9,30.10,NE,45,0.0,0.0,71,0.00,,,0.00,Wunderground v.1.15,2013-09-05 23:29:00,
2013-09-05 19:34:00,73.3,63.7,30.10,NE,45,0.0,0.0,72,0.00,,,0.00,Wunderground v.1.15,2013-09-05 23:34:00,
2013-09-05 19:40:00,73.0,63.4,30.10,NE,45,0.0,0.0,72,0.00,,,0.00,Wunderground v.1.15,2013-09-05 23:40:00,
2013-09-05 19:45:00,72.7,63.5,30.10,NE,45,0.0,0.0,73,0.00,,,0.00,Wunderground v.1.15,2013-09-05 23:45:00,
2013-09-05 19:50:00,72.3,62.8,30.10,NE,45,0.0,0.0,72,0.00,,,0.00,Wunderground v.1.15,2013-09-05 23:50:00,
2013-09-05 19:56:00,72.1,63.0,30.10,NE,45,0.0,0.0,73,0.00,,,0.00,Wunderground v.1.15,2013-09-05 23:56:00,
2013-09-05 20:01:00,71.8,62.3,30.10,NE,45,0.0,0.0,72,0.00,,,0.00,Wunderground v.1.15,2013-09-06 00:01:00,
2013-09-05 20:07:00,71.6,62.1,30.10,NE,45,0.0,0.0,72,0.00,,,0.00,Wunderground v.1.15,2013-09-06 00:07:00,
2013-09-05 20:12:00,71.6,62.5,30.10,NE,45,0.0,0.0,73,0.00,,,0.00,Wunderground v.1.15,2013-09-06 00:12:00,
2013-09-05 20:18:00,71.5,62.4,30.10,NE,45,0.0,1.0,73,0.00,,,0.00,Wunderground v.1.15,2013-09-06 00:18:00,
2013-09-05 20:23:00,71.5,62.4,30.11,NE,45,0.0,0.0,73,0.00,,,0.00,Wunderground v.1.15,2013-09-06 00:23:00,
2013-09-05 20:29:00,71.3,62.6,30.11,NE,45,0.0,0.0,74,0.00,,,0.00,Wunderground v.1.15,2013-09-06 00:29:00,
2013-09-05 20:34:00,71.3,62.6,30.11,NE,45,0.0,0.0,74,0.00,,,0.00,Wunderground v.1.15,2013-09-06 00:34:00,
2013-09-05 20:40:00,71.3,62.6,30.11,NE,45,0.0,0.0,74,0.00,,,0.00,Wunderground v.1.15,2013-09-06 00:40:00,
2013-09-05 20:45:00,71.1,62.4,30.11,NE,45,0.0,0.0,74,0.00,,,0.00,Wunderground v.1.15,2013-09-06 00:45:00,
2013-09-05 20:51:00,71.1,62.4,30.11,NE,45,0.0,0.0,74,0.00,,,0.00,Wunderground v.1.15,2013-09-06 00:51:00,
2013-09-05 20:56:00,71.1,62.8,30.11,NE,45,0.0,0.0,75,0.00,,,0.00,Wunderground v.1.15,2013-09-06 00:56:00,
2013-09-05 21:02:00,71.1,63.1,30.11,NE,45,0.0,0.0,76,0.00,,,0.00,Wunderground v.1.15,2013-09-06 01:02:00,
2013-09-05 21:07:00,70.9,63.3,30.11,NE,45,0.0,0.0,77,0.00,,,0.00,Wunderground v.1.15,2013-09-06 01:07:00,
2013-09-05 21:13:00,70.9,63.7,30.11,NE,45,0.0,0.0,78,0.00,,,0.00,Wunderground v.1.15,2013-09-06 01:13:00,
2013-09-05 21:18:00,70.9,63.7,30.11,NE,45,0.0,0.0,78,0.00,,,0.00,Wunderground v.1.15,2013-09-06 01:18:00,
2013-09-05 21:23:00,70.8,62.9,30.12,NE,45,0.0,0.0,76,0.00,,,0.00,Wunderground v.1.15,2013-09-06 01:23:00,
2013-09-05 21:29:00,70.6,62.7,30.12,NE,45,0.0,0.0,76,0.00,,,0.00,Wunderground v.1.15,2013-09-06 01:29:00,
2013-09-05 21:35:00,70.4,62.1,30.12,NE,45,0.0,0.0,75,0.00,,,0.00,Wunderground v.1.15,2013-09-06 01:35:00,
2013-09-05 21:40:00,70.4,62.1,30.12,NE,45,0.0,0.0,75,0.00,,,0.00,Wunderground v.1.15,2013-09-06 01:40:00,
2013-09-05 21:45:00,70.3,62.0,30.12,NE,45,0.0,0.0,75,0.00,,,0.00,Wunderground v.1.15,2013-09-06 01:45:00,
2013-09-05 21:51:00,69.9,61.6,30.12,NE,45,0.0,0.0,75,0.00,,,0.00,Wunderground v.1.15,2013-09-06 01:51:00,
2013-09-05 21:56:00,69.8,61.1,30.12,NE,45,0.0,0.0,74,0.00,,,0.00,Wunderground v.1.15,2013-09-06 01:56:00,
2013-09-05 22:02:00,69.6,61.3,30.12,NE,45,0.0,0.0,75,0.00,,,0.00,Wunderground v.1.15,2013-09-06 02:02:00,
2013-09-05 22:07:00,69.6,60.9,30.12,NE,45,0.0,0.0,74,0.00,,,0.00,Wunderground v.1.15,2013-09-06 02:07:00,
2013-09-05 22:13:00,69.6,61.3,30.12,NE,45,0.0,0.0,75,0.00,,,0.00,Wunderground v.1.15,2013-09-06 02:13:00,
2013-09-05 22:18:00,69.6,61.3,30.12,NE,45,0.0,0.0,75,0.00,,,0.00,Wunderground v.1.15,2013-09-06 02:18:00,
2013-09-05 22:24:00,69.4,61.1,30.13,NE,45,0.0,0.0,75,0.00,,,0.00,Wunderground v.1.15,2013-09-06 02:24:00,
2013-09-05 22:29:00,69.4,61.1,30.13,NE,45,0.0,0.0,75,0.00,,,0.00,Wunderground v.1.15,2013-09-06 02:29:00,
2013-09-05 22:35:00,69.3,61.0,30.13,NE,45,0.0,0.0,75,0.00,,,0.00,Wunderground v.1.15,2013-09-06 02:35:00,
2013-09-05 22:40:00,69.3,61.0,30.13,NE,45,0.0,0.0,75,0.00,,,0.00,Wunderground v.1.15,2013-09-06 02:40:00,
2013-09-05 22:46:00,69.3,61.4,30.13,NE,45,0.0,0.0,76,0.00,,,0.00,Wunderground v.1.15,2013-09-06 02:46:00,
2013-09-05 22:51:00,69.3,61.4,30.13,NE,45,0.0,0.0,76,0.00,,,0.00,Wunderground v.1.15,2013-09-06 02:51:00,
2013-09-05 22:57:00,69.1,60.5,30.13,NE,45,0.0,0.0,74,0.00,,,0.00,Wunderground v.1.15,2013-09-06 02:57:00,
2013-09-05 23:02:00,69.3,60.3,30.13,NE,45,0.0,0.0,73,0.00,,,0.00,Wunderground v.1.15,2013-09-06 03:02:00,
2013-09-05 23:08:00,69.3,61.0,30.13,NE,45,0.0,0.0,75,0.00,,,0.00,Wunderground v.1.15,2013-09-06 03:08:00,
2013-09-05 23:13:00,69.4,60.4,30.13,NE,45,0.0,0.0,73,0.00,,,0.00,Wunderground v.1.15,2013-09-06 03:13:00,
2013-09-05 23:18:00,69.3,60.3,30.13,NE,45,0.0,0.0,73,0.00,,,0.00,Wunderground v.1.15,2013-09-06 03:18:00,
2013-09-05 23:24:00,69.1,59.7,30.13,NE,45,0.0,0.0,72,0.00,,,0.00,Wunderground v.1.15,2013-09-06 03:24:00,
2013-09-05 23:29:00,68.9,59.9,30.13,NE,45,0.0,0.0,73,0.00,,,0.00,Wunderground v.1.15,2013-09-06 03:29:00,
2013-09-05 23:35:00,68.8,60.2,30.13,NE,45,0.0,0.0,74,0.00,,,0.00,Wunderground v.1.15,2013-09-06 03:35:00,
2013-09-05 23:40:00,68.6,59.6,30.13,NE,45,0.0,0.0,73,0.00,,,0.00,Wunderground v.1.15,2013-09-06 03:40:00,
2013-09-05 23:46:00,68.4,59.4,30.13,NE,45,0.0,0.0,73,0.00,,,0.00,Wunderground v.1.15,2013-09-06 03:46:00,
2013-09-05 23:51:00,68.4,59.8,30.13,NE,45,0.0,0.0,74,0.00,,,0.00,Wunderground v.1.15,2013-09-06 03:51:00,
2013-09-05 23:57:00,68.3,59.7,30.13,NE,45,0.0,0.0,74,0.00,,,0.00,Wunderground v.1.15,2013-09-06 03:57:00,